Location: Capelle
(50.3413°N, 1.9974°E)
Time: 23:58:40
(UTC+00:00)

COSMOS 2455 - Pass Details

Date: 12 January 2026
Orbit: 899 x 909 km, 67.1° (Epoch: 9 February)

Event Time Altitude Azimuth Distance (km) Brightness Sun altitude
Rises 17:41:26 0° 317° (NW) 3,549 6.3 -13.5°
Reaches altitude 10° 17:44:42 10° 334° (NNW) 2,605 5.4 -14.0°
Maximum altitude 17:49:04 20° 20° (NNE) 1,971 4.3 -14.7°
Enters shadow 17:51:03 17° 45° (NE) 2,114 4.3 -15.0°
